Regional Weather Roundup
Issued by NWS

Home | Current Version | Previous Version | Text Only | Print | Product List | Glossary Off
Versions: 1 2 3 4 5 6 7 8 9 10 11 12 13 14 15 16 17 18 19 20 21 22 23 24 25 26 27 28 29 30 31 32 33 34 35 36 37 38 39 40 41 42 43 44 45 46 47 48 49 50

000
ASUS43 KDTX 281210
RWRMI
MICHIGAN HOURLY REGIONAL WEATHER ROUNDUP
NATIONAL WEATHER SERVICE DETROIT/PONTIAC MI
800 AM EDT FRI AUG 28 2015

NOTE: "FAIR" INDICATES FEW OR NO CLOUDS BELOW 12,000 FEET WITH NO
SIGNIFICANT WEATHER AND/OR OBSTRUCTION TO VISIBILITY.

MIZ047>049-052>055-059>063-066>070-074>076-081>083-281300-
SOUTHEAST LOWER MICHIGAN

CITY           SKY/WX    TMP DP  RH WIND       PRES   REMARKS
ADRIAN         PTSUNNY   52  50  93 CALM      30.20F
6HR MIN TEMP:  47; 6HR MAX TEMP:  52;

ALMA           FOG       47  47 100 CALM      30.19R VSB 1/4
ANN ARBOR      PTSUNNY   51  50  96 CALM      30.20S
BAD AXE        CLOUDY    54  53  95 CALM      30.21R
CARO           SUNNY     51  51  99 CALM      30.19F FOG
DETROIT CITY   SUNNY     53  51  93 CALM      30.21R
6HR MIN TEMP:  52; 6HR MAX TEMP:  55;

DETROIT        PTSUNNY   56  52  86 CALM      30.22R
6HR MIN TEMP:  54; 6HR MAX TEMP:  58;

FLINT          SUNNY     51  48  89 CALM      30.20F
6HR MIN TEMP:  46; 6HR MAX TEMP:  52;

GROSSE ILE     SUNNY     55  54  94 CALM      30.20R
HILLSDALE      CLOUDY    57  57 100 S7        30.20R FOG
6HR MIN TEMP:  51; 6HR MAX TEMP:  57;

HOWELL         SUNNY     48  48  99 CALM      30.20S
6HR MIN TEMP:  46; 6HR MAX TEMP:  53;


CITY           SKY/WX    TMP DP  RH WIND       PRES   REMARKS
JACKSON        SUNNY     54  53  97 CALM      30.20R
6HR MIN TEMP:  49; 6HR MAX TEMP:  54;

LAMBERTVILLE   SUNNY     52  50  92 CALM      30.20S FOG
6HR MIN TEMP:  50; 6HR MAX TEMP:  54;

LANSING        MOSUNNY   51  50  96 CALM      30.20R
6HR MIN TEMP:  49; 6HR MAX TEMP:  54;

LAPEER         FAIR      47  47 100 CALM      30.21S
6HR MIN TEMP:  43; 6HR MAX TEMP:  47;

MASON          MOSUNNY   47  47  99 CALM      30.19R FOG
MONROE         SUNNY     51  51  97 CALM      30.20R FOG
6HR MIN TEMP:  48; 6HR MAX TEMP:  53;

MT. CLEMENS    PTSUNNY   54  53  97 CALM      30.19S
6HR MIN TEMP:  49; 6HR MAX TEMP:  54;

PONTIAC        MOSUNNY   53  51  93 CALM      30.20S
6HR MIN TEMP:  47; 6HR MAX TEMP:  53;

PORT HOPE        N/A     58  53  84 SW8       30.18R
6HR MIN TEMP:  55; 6HR MAX TEMP:  58;

PORT HURON     SUNNY     48  48 100 CALM      30.22S
TRI CITIES     SUNNY     56  52  86 S6        30.19S
6HR MIN TEMP:  55; 6HR MAX TEMP:  58;

MIDLAND        FAIR      53  52  97 CALM      30.18R FOG
6HR MIN TEMP:  50; 6HR MAX TEMP:  56;

TROY           PTSUNNY   55  52  90 CALM      30.23S
SAGINAW HB     SUNNY     52  52 100 S3        30.18F FOG
$$
MIZ043>046-050>051-056>058-064>065-071>073-077>080-281300-
SOUTHWEST LOWER MICHIGAN

CITY           SKY/WX    TMP DP  RH WIND       PRES   REMARKS
BATTLE CREEK   PTCLDY    57  54  89 S5        30.19R
6HR MIN TEMP:  55; 6HR MAX TEMP:  57;

BENTON HARBOR  CLEAR     57  54  89 SE6       30.15R FOG
6HR MIN TEMP:  55; 6HR MAX TEMP:  59;

BIG RAPIDS     FOG       49  49  99 CALM      30.17R VSB 1/2
6HR MIN TEMP:  49; 6HR MAX TEMP:  54;

COLDWATER      MOCLDY    56  55  99 SE5       30.18R FOG
6HR MIN TEMP:  50; 6HR MAX TEMP:  56;

FREMONT        FAIR      52  52 100 CALM      30.17R FOG
HOLLAND        PTCLDY    54  52  93 SE3       30.17R
6HR MIN TEMP:  53; 6HR MAX TEMP:  55;

GRAND RAPIDS   MOCLDY    55  54  96 CALM      30.18R
6HR MIN TEMP:  51; 6HR MAX TEMP:  55;

IONIA          MOCLDY    52  52 100 CALM      30.19R
6HR MIN TEMP:  47; 6HR MAX TEMP:  53;

KALAMAZOO      PTCLDY    56  53  90 S6        30.19R FOG
6HR MIN TEMP:  55; 6HR MAX TEMP:  59;

LUDINGTON      PTCLDY    56  54  92 CALM      30.15R
6HR MIN TEMP:  53; 6HR MAX TEMP:  59;

MARSHALL       PTCLDY    54  53  97 CALM      30.18R FOG
MOUNT PLEASANT SUNNY     53  52  94 CALM      30.18R FOG
6HR MIN TEMP:  51; 6HR MAX TEMP:  58;

MUSKEGON       MOCLDY    56  52  86 SE5       30.17R
6HR MIN TEMP:  53; 6HR MAX TEMP:  56;

SOUTH HAVEN    CLEAR     56  54  94 CALM      30.16R FOG
$$
MIZ016>042-281300-
NORTHERN LOWER MICHIGAN

CITY           SKY/WX    TMP DP  RH WIND       PRES   REMARKS
ALPENA         SUNNY     49  48  97 CALM      30.16S
6HR MIN TEMP:  45; 6HR MAX TEMP:  53;

BEAVER ISLAND  MOCLDY    64  59  83 SW7       30.10S
6HR MIN TEMP:  60; 6HR MAX TEMP:  64;

BELLAIRE       SUNNY     51  50  97 CALM      30.15R FOG
6HR MIN TEMP:  48; 6HR MAX TEMP:  52;

CADILLAC       CLEAR     51  49  94 CALM      30.16R
CHARLEVOIX     PTCLDY    58  57  96 SE5       30.15S
6HR MIN TEMP:  56; 6HR MAX TEMP:  59;

FRANKFORT      PTCLDY    56  55  97 SE3       30.14R
GAYLORD        MOSUNNY   54  53  97 CALM      30.16R
6HR MIN TEMP:  51; 6HR MAX TEMP:  56;

GRAYLING       SUNNY     46  45  95 CALM      30.17R
6HR MIN TEMP:  42; 6HR MAX TEMP:  52;

HARBOR SPRINGS MOSUNNY   56  55  95 CALM      30.14R
HOUGHTON LAKE  SUNNY     52  52 100 CALM      30.18R FOG
6HR MIN TEMP:  50; 6HR MAX TEMP:  58;

MANISTEE       CLEAR     52  48  87 E3        30.15R
OSCODA         MOSUNNY   56  55  97 SW5       30.17R
6HR MIN TEMP:  52; 6HR MAX TEMP:  56;

PELLSTON       SUNNY     57  56  96 SE5       30.13R
6HR MIN TEMP:  46; 6HR MAX TEMP:  57;

ROGERS CITY    SUNNY     56  54  92 SW8       30.14F
TRAVERSE CITY  PTCLDY    59  55  87 S3        30.13R
6HR MIN TEMP:  56; 6HR MAX TEMP:  59;

$$
MIZ007>008-015-281300-
EASTERN UPPER MICHIGAN

CITY           SKY/WX    TMP DP  RH WIND       PRES   REMARKS
KINROSS        CLOUDY    59  57  94 S5        30.10S VSB<1/4
6HR MIN TEMP:  52; 6HR MAX TEMP:  59;

MACKINAC ISLAN SUNNY     60  58  93 S7        30.11R
6HR MIN TEMP:  58; 6HR MAX TEMP:  60;

NEWBERRY       CLEAR     57  56  97 S6        30.08S
6HR MIN TEMP:  56; 6HR MAX TEMP:  58;

S. S. MARIE    FOG       57  56  96 CALM      30.09F VSB 1/4
6HR MIN TEMP:  55; 6HR MAX TEMP:  57;

MUNISING         N/A     61  56  83 SW9       30.05R
6HR MIN TEMP:  60; 6HR MAX TEMP:  63;

$$
MIZ004>006-011>014-085-281300-
CENTRAL UPPER MICHIGAN

CITY           SKY/WX    TMP DP  RH WIND       PRES   REMARKS
MANISTIQUE     PTCLDY    61  58  90 S7        30.08R
6HR MIN TEMP:  59; 6HR MAX TEMP:  62;

ESCANABA       CLOUDY    59  55  88 SW7       30.08R
6HR MIN TEMP:  55; 6HR MAX TEMP:  61;

MENOMINEE      CLOUDY    61  55  82 SW7       30.10R
6HR MIN TEMP:  59; 6HR MAX TEMP:  61;

SAWYER-GWINN   CLOUDY    55  55 100 SW7       30.06R FOG
$$
MIZ001>003-009>011-084-281300-
WESTERN UPPER MICHIGAN

CITY           SKY/WX    TMP DP  RH WIND       PRES   REMARKS
IRON MOUNTAIN  CLOUDY    58  56  93 SE5       30.07R
6HR MIN TEMP:  54; 6HR MAX TEMP:  59;

HOUGHTON       MOCLDY    56  54  93 CALM      30.00S
6HR MIN TEMP:  53; 6HR MAX TEMP:  58;

COPPER HARBOR    N/A     61  55  81 CALM      29.98S
6HR MIN TEMP:  59; 6HR MAX TEMP:  62;

IRONWOOD       PTCLDY    63  57  82 SW6       29.99S
6HR MIN TEMP:  61; 6HR MAX TEMP:  64;

$$

ABBREVIATIONS USED IN REMARKS
   TC - TEMPERATURE IN CELSIUS
  WCI - WIND CHILL INDEX
   HX - HEAT INDEX
  VSB - VISIBILITY




USA.gov is the U.S. government's official web portal to all federal, state and local government web resources and services.